Lapse_Rate
6.5 6.0 6.0 6.9 4.9 5.2 6.0 6.1 6.5 5.4 5.3 6.1 6.1 6.5 6.5 5.8 6.3 5.3 6.4 6.4 6.5 6.5 6.5 6.5 6.5 6.5 6.5 5.8 6.2 6.5 6.5 6.5 6.5 6.5 6.5 6.5 6.5 6.5 6.5 6.5 6.5 6.5 6.5 6.5
6.2 6.2 5.8 6.9 5.5 4.7 5.3 6.4 5.9 5.7 6.0 6.5 6.5 6.6 6.5 6.0 6.5 6.5 6.5 6.5 6.5 6.5 6.5 6.5 6.5 6.5 5.9 5.7 6.4 6.5 6.5 6.5 6.5 6.5 6.5 6.5 6.5 6.5 6.5 6.5 6.5 6.5 6.5 6.5
7.0 6.6 6.2 6.9 7.0 5.7 5.7 6.4 6.5 6.3 6.2 6.7 6.4 6.5 6.5 6.5 5.2 6.2 5.8 6.4 6.3 6.5 6.5 6.5 6.5 6.5 6.5 6.2 5.9 6.5 6.1 6.5 6.5 6.5 6.5 6.5 6.5 6.5 6.5 6.5 6.5 6.5 6.5 6.5
6.8 6.9 6.3 6.8 7.4 5.4 5.9 5.6 6.4 6.3 6.5 6.5 6.5 6.4 6.5 6.5 6.5 5.9 5.2 6.5 6.5 6.5 6.5 6.5 6.5 6.5 6.5 6.3 6.4 6.4 6.5 6.5 6.5 6.5 6.5 6.5 6.5 6.5 6.5 6.5 6.5 6.5 6.5 6.5
6.9 6.7 6.8 7.1 7.8 5.9 6.2 6.6 5.7 5.1 5.3 5.0 6.5 6.5 6.5 6.5 6.5 6.5 6.5 6.5 6.5 6.5 6.5 6.5 6.5 6.5 6.5 6.5 6.5 6.5 6.5 6.5 6.5 6.5 6.5 6.5 6.5 6.5 6.5 6.5 6.5 6.5 6.5 6.5
7.0 6.2 6.0 6.5 7.9 6.4 6.4 5.5 4.2 4.8 6.3 6.4 6.5 6.5 6.5 6.5 6.3 5.8 5.0 6.1 6.5 6.5 6.5 4.9 4.1 4.9 5.2 6.0 6.5 6.5 6.5 6.5 6.5 6.5 6.5 6.5 6.5 6.5 6.5 6.5 6.5 6.5 6.5 6.5
7.1 6.8 6.4 6.9 7.8 7.1 5.3 5.5 4.6 5.4 6.5 6.5 6.5 6.5 6.4 6.5 6.4 6.5 6.1 5.0 6.3 5.6 4.6 4.9 5.0 5.1 5.3 5.8 6.2 5.6 6.5 6.5 6.5 6.5 6.5 6.5 6.5 6.5 6.5 6.5 6.5 6.5 6.5 6.5
7.6 7.2 6.2 5.9 7.3 6.8 5.8 4.9 5.0 4.5 6.5 6.2 6.4 6.4 6.5 5.8 5.6 6.3 5.8 5.1 4.4 3.6 4.2 6.5 6.5 6.5 6.5 6.5 6.5 6.5 6.4 6.5 6.5 6.5 6.5 6.5 6.5 6.5 6.5 6.5 6.5 6.5 6.5 6.5
7.6 7.1 6.5 5.9 7.1 7.3 6.2 5.7 4.5 4.5 5.8 6.3 5.0 6.0 5.3 6.5 6.5 6.5 5.9 4.8 3.8 4.0 6.4 6.5 6.5 6.5 6.5 6.5 6.5 6.5 6.5 6.5 6.5 6.5 6.5 6.5 6.5 6.5 6.2 6.5 6.5 6.5 6.4 6.5
7.9 7.0 6.5 6.3 6.0 6.2 6.3 6.7 4.6 5.6 5.4 3.6 4.8 5.7 5.6 3.4 5.5 6.5 5.8 5.2 5.8 4.7 6.5 6.5 6.5 6.5 6.5 6.5 6.5 6.5 6.5 6.5 6.5 6.5 6.5 6.5 6.5 6.4 5.9 6.5 6.5 5.5 5.4 5.8
8.8 7.2 6.7 6.3 6.5 6.8 6.1 6.8 5.5 6.6 4.6 3.4 4.3 5.1 3.7 3.8 3.4 6.5 5.0 5.8 5.7 6.2 6.5 6.5 6.5 6.5 6.5 6.5 6.5 6.5 6.5 6.5 6.5 6.5 6.5 6.5 6.0 6.0 6.5 6.0 4.7 5.3 4.6 4.8
7.8 7.3 7.0 6.2 6.3 6.3 6.7 5.6 5.5 5.5 5.6 5.0 2.4 3.4 3.3 3.8 3.9 1.8 2.9 5.1 5.1 4.7 6.5 6.5 6.5 6.5 6.5 6.5 6.5 6.5 6.5 6.5 6.5 6.5 6.5 5.9 4.5 5.2 4.9 3.6 4.4 5.2 4.8 4.4
7.7 7.0 7.0 6.0 5.4 6.7 6.5 5.0 5.4 6.1 6.1 6.0 4.5 4.5 3.6 2.0 1.8 1.4 3.5 3.1 3.3 3.2 2.8 5.4 6.5 6.5 6.5 6.5 6.5 6.5 6.5 5.8 6.5 6.5 6.5 6.3 2.9 2.1 1.4 3.9 4.6 4.4 3.9 3.9
9.0 7.9 7.3 6.0 5.4 6.3 4.7 5.7 4.9 7.4 6.2 6.4 5.2 2.3 4.0 2.3 1.6 2.7 2.5 1.6 1.3 1.3 2.5 5.0 6.5 6.5 5.2 6.5 6.5 6.5 6.2 6.2 6.5 6.5 6.4 4.5 4.3 3.0 2.4 4.2 3.7 3.4 2.6 3.0
7.9 8.6 6.4 6.2 6.0 5.8 5.8 5.4 5.6 6.0 5.8 6.3 4.9 3.5 3.6 2.5 2.7 2.9 2.9 2.7 2.1 2.5 4.7 6.2 6.5 5.4 6.0 6.0 6.4 6.5 5.4 6.5 6.5 6.5 5.7 5.2 4.2 2.7 2.9 3.3 3.2 2.4 2.7 2.6
7.9 8.6 6.3 7.6 6.0 5.8 6.9 7.0 5.8 4.2 5.0 5.3 6.5 4.5 4.8 4.6 3.7 3.3 3.3 3.0 2.3 2.1 3.4 5.3 4.2 3.6 5.0 6.5 6.5 5.9 3.6 3.2 4.0 5.6 5.1 3.5 2.6 2.0 2.8 2.8 2.6 2.4 2.0 1.9
7.7 8.2 6.5 6.4 6.5 6.3 6.9 6.0 5.7 5.9 6.6 6.1 6.5 6.5 5.6 5.6 4.5 3.8 3.8 3.2 2.7 3.2 3.4 5.1 5.2 5.0 4.4 6.5 6.5 5.8 4.7 4.8 4.1 3.7 3.9 4.1 3.9 3.8 3.1 3.2 2.3 1.9 0.5 0.5
7.9 7.1 5.9 6.1 7.2 6.7 6.3 4.6 5.7 6.8 6.5 6.0 6.5 6.5 6.3 5.6 4.8 5.3 3.4 3.9 3.2 3.6 4.1 4.5 6.1 5.3 5.6 6.5 6.1 4.1 4.3 3.0 3.5 2.9 2.9 3.2 2.9 2.9 2.3 0.5 0.2 1.0 0.2 -0.4
8.1 7.7 6.6 5.5 6.4 6.5 5.7 5.8 6.3 5.1 5.9 6.5 6.4 6.5 6.5 5.6 5.0 4.2 4.1 3.6 6.5 4.2 6.6 6.3 5.9 6.5 6.5 6.5 5.8 5.4 4.3 4.0 3.3 1.1 1.6 2.4 2.7 2.6 2.5 1.7 1.3 1.4 0.0 -0.2
7.6 6.6 6.3 5.4 5.9 6.0 6.2 5.4 5.4 5.9 5.7 4.9 6.5 4.4 6.5 6.1 5.9 6.3 6.1 5.7 6.5 6.5 6.4 4.7 6.5 6.5 5.6 4.4 3.8 2.9 2.3 2.0 2.2 3.9 3.8 4.0 3.0 2.2 1.8 1.1 1.6 1.7 0.6 -0.1
6.4 5.3 5.3 4.6 5.7 5.3 5.0 6.2 6.3 6.2 6.5 6.4 6.0 4.9 6.5 5.2 6.5 6.5 5.6 6.5 6.5 6.5 6.5 6.5 6.5 6.5 6.4 4.0 3.1 2.7 1.8 1.4 1.8 2.3 2.1 2.6 2.5 2.8 1.9 1.4 1.2 1.2 0.6 0.1
6.8 5.4 4.3 4.5 5.0 5.4 6.4 6.5 6.4 6.5 6.5 6.3 6.5 5.0 4.3 4.6 3.9 6.1 6.1 6.5 6.5 6.5 6.3 6.5 6.5 6.5 5.6 3.9 2.9 1.8 1.8 1.6 1.7 2.0 1.8 2.0 2.5 2.3 1.7 1.5 1.1 0.8 0.7 0.4
6.0 5.0 5.5 5.7 6.1 6.5 6.5 6.5 6.5 6.5 6.4 5.9 5.4 6.2 4.6 4.8 5.3 6.2 6.5 6.5 6.5 6.0 6.5 6.5 6.5 5.9 5.1 3.7 2.7 2.2 2.5 2.0 2.1 2.6 2.8 3.4 3.6 2.4 1.2 0.6 0.4 0.5 -0.1 -0.6
6.4 6.4 6.5 6.5 6.5 6.5 6.5 6.5 6.5 5.0 6.3 6.5 5.7 6.5 6.4 6.0 6.5 6.5 6.5 6.5 6.5 6.5 6.5 6.5 6.5 5.5 4.4 3.2 3.0 2.9 3.0 2.9 2.3 1.0 0.5 1.1 -0.8 0.8 0.6 0.5 -0.1 -0.2 -0.4 -1.0
6.2 6.3 6.5 6.5 6.5 6.3 6.1 5.9 5.9 5.3 6.9 5.3 5.9 6.0 5.6 6.5 6.5 6.5 6.5 6.5 6.5 6.5 6.5 6.5 4.9 4.8 4.2 3.8 3.3 3.3 3.2 2.8 3.2 2.9 1.0 -0.8 -1.8 -1.4 0.2 -0.2 -0.2 0.1 -0.6 -0.7
5.8 6.1 6.5 6.5 6.5 6.5 6.3 6.4 6.2 5.1 5.5 3.1 3.4 6.5 6.5 6.5 6.5 6.5 6.5 6.5 6.5 6.5 6.4 4.2 5.0 4.9 4.2 3.7 3.7 3.6 3.6 3.5 3.4 3.1 2.6 1.9 1.2 1.0 0.5 -0.0 0.1 0.1 -0.2 -0.4
6.0 6.4 6.5 6.5 6.3 6.5 6.4 5.7 5.3 4.7 4.6 6.5 6.6 6.5 6.5 6.5 6.5 6.5 6.5 6.5 6.5 6.2 4.0 3.7 4.7 4.8 4.8 4.1 3.2 2.9 3.1 3.3 2.6 1.9 0.6 0.3 -0.1 -0.8 -0.7 1.0 0.9 0.4 0.4 0.5
Wind_Speed
22 20 16 25 32 32 14 4 3 5 6 4 3 5 6 4 4 3 4 4 7 6 6 3 4 6 5 4 4 3 4 2 5 10 8 6 2 3 3 3 5 4 4 4
24 23 21 24 34 38 6 6 3 3 3 7 9 5 5 5 4 5 6 6 6 4 6 3 6 4 4 4 5 3 3 2 5 8 4 2 3 3 3 3 4 7 4 5
23 24 25 24 42 42 9 5 6 3 5 2 6 4 5 5 6 4 5 4 4 4 4 6 4 3 3 1 4 4 3 3 6 6 11 5 9 9 6 5 3 5 11 12
19 26 27 25 38 45 9 5 6 6 8 12 15 5 3 5 7 5 7 3 8 7 5 3 5 4 4 3 2 2 4 5 5 11 15 13 15 16 15 7 11 7 17 13
24 28 29 32 33 43 9 5 4 3 2 10 20 16 6 8 4 8 6 6 7 8 7 9 7 4 2 6 1 3 1 4 3 9 8 4 12 14 12 11 9 15 13 12
20 27 37 34 38 35 2 1 1 4 8 10 13 16 18 8 5 6 7 12 5 6 14 8 7 4 4 5 3 2 1 1 3 5 6 10 3 4 5 6 5 3 5 4
20 24 32 30 43 45 3 3 3 3 5 10 13 9 18 18 13 5 3 6 7 3 3 1 1 1 5 5 6 4 3 1 1 4 7 3 5 5 6 5 9 7 8 7
26 27 33 22 43 47 5 2 3 3 3 7 8 9 8 8 5 4 5 5 3 4 4 2 4 3 1 2 3 6 5 3 2 2 2 7 6 3 4 4 5 3 6 8
27 29 31 37 44 46 13 3 2 2 4 7 7 6 6 5 5 3 3 2 1 4 3 2 2 3 2 3 3 5 5 3 2 1 3 4 5 1 1 3 3 4 4 6
28 31 37 34 32 38 15 3 4 3 1 2 5 4 6 6 3 4 3 5 1 1 3 2 4 3 3 3 3 4 2 1 4 4 4 8 9 4 0 4 5 5 4 4
29 30 36 38 42 42 20 11 9 5 2 4 1 1 4 3 3 5 5 4 1 2 4 4 3 3 4 1 3 5 6 6 4 2 2 6 2 5 2 5 3 3 5 4
29 28 32 35 32 42 38 3 5 3 3 1 1 2 1 1 4 5 2 2 4 5 4 1 2 2 0 2 3 1 3 6 4 8 6 5 3 5 2 2 3 3 3 3
31 31 31 36 33 40 29 5 7 4 3 2 2 3 1 0 1 1 4 2 4 2 2 3 2 2 4 3 5 2 4 3 3 1 3 6 7 6 5 3 3 1 1 1
28 30 30 34 36 28 15 5 4 8 3 2 2 2 1 1 1 2 1 6 5 5 2 2 2 2 3 3 3 3 3 5 4 5 8 6 3 4 7 3 3 1 3 2
27 26 26 28 35 30 14 4 4 2 3 4 3 1 2 3 1 5 4 5 4 2 2 2 3 2 3 1 1 4 5 6 5 5 3 3 5 6 4 3 4 5 3 3
26 24 24 25 27 10 9 3 3 3 3 2 3 1 2 3 4 6 5 3 3 3 3 3 1 1 2 2 3 5 5 3 2 3 2 4 7 5 2 3 4 3 4 4
28 27 23 23 23 6 4 4 5 16 4 2 3 1 1 2 3 2 2 2 2 2 2 2 3 2 3 2 4 4 1 2 4 3 3 6 2 3 2 1 2 4 5 4
28 29 25 24 23 9 4 2 22 18 4 2 3 2 1 4 2 2 0 2 2 2 2 1 2 1 1 4 7 5 4 7 1 4 4 5 4 1 1 3 3 4 5 5
27 28 25 6 4 3 3 18 18 2 3 4 2 5 4 3 1 2 2 2 2 0 2 2 3 2 5 5 2 1 4 4 8 8 7 6 5 6 4 4 4 5 6 6
23 3 2 2 2 26 13 4 2 2 1 2 2 3 3 3 2 1 3 1 2 2 3 3 2 3 4 2 2 4 5 6 6 5 6 3 5 6 5 7 5 5 6 6
2 2 2 3 9 2 2 3 3 3 4 4 3 3 4 2 3 3 1 3 2 2 3 4 2 3 1 4 5 4 6 6 7 7 8 7 6 6 5 6 6 6 7 7
4 1 4 3 1 1 4 3 3 4 5 3 5 4 3 2 2 3 2 3 2 4 3 2 3 2 2 5 6 7 6 6 7 6 8 7 8 7 5 5 6 6 6 7
1 2 3 2 2 3 6 9 4 5 5 5 4 3 4 2 2 3 3 3 3 3 2 3 3 2 4 5 5 6 6 5 5 6 5 4 2 1 3 4 4 6 6 6
2 2 3 2 1 2 1 2 3 3 6 11 6 4 3 2 2 3 4 2 4 3 3 4 2 4 6 6 5 4 7 6 5 5 5 5 4 3 3 4 5 6 6 6
2 2 1 2 2 2 2 1 2 1 9 8 6 4 3 2 3 2 4 2 3 4 3 1 1 4 4 5 5 5 6 6 5 5 4 4 3 3 4 3 4 5 6 6
1 2 2 2 2 2 2 3 3 2 6 2 3 4 4 2 4 3 5 6 5 3 2 1 1 4 5 4 4 5 5 5 5 5 4 4 6 5 3 4 4 3 5 6
3 2 2 2 1 2 1 1 2 2 1 3 3 4 3 3 3 1 2 4 3 5 2 2 1 2 4 4 4 5 5 5 5 4 6 4 4 3 4 4 3 3 2 2
Wind_Direction
265 263 244 232 175 154 139 142 193 162 151 160 209 212 205 230 242 156 223 170 204 205 183 236 247 235 227 197 159 211 219 213 279 262 290 255 243 246 144 286 306 261 253 273
271 261 249 224 182 160 138 165 157 158 186 201 212 243 267 228 196 199 182 212 204 177 200 224 212 244 262 201 179 211 178 251 302 326 3 25 296 240 236 207 243 265 285 284
281 273 255 229 195 175 154 161 161 169 202 216 152 200 242 232 204 207 179 193 153 152 228 223 262 253 289 203 219 227 159 218 204 255 265 294 294 276 268 250 256 311 276 293
292 313 271 228 206 176 166 174 197 175 195 210 207 174 267 196 204 214 183 215 204 174 222 223 226 240 268 260 271 174 167 247 222 251 262 273 268 271 283 223 235 241 276 314
291 290 300 244 198 195 188 160 160 154 162 167 203 202 226 206 202 161 223 213 203 187 202 201 198 202 187 242 299 194 213 271 331 287 266 232 283 279 260 263 251 257 268 276
311 296 284 250 196 189 151 156 115 128 168 169 178 208 216 215 189 224 193 203 163 189 232 228 235 206 223 243 216 208 254 301 347 266 321 307 302 276 260 278 254 264 291 279
317 308 324 219 204 190 129 188 125 136 166 176 192 186 207 218 215 194 199 143 162 198 113 141 108 159 239 240 241 201 185 109 186 282 333 1 247 295 227 249 281 287 293 320
330 327 336 311 192 188 163 164 165 163 161 189 184 193 171 197 222 212 182 198 198 144 74 24 357 339 318 210 211 203 184 131 274 302 273 285 319 6 346 35 297 327 310 326
333 334 318 327 199 190 166 163 144 116 134 222 154 169 171 156 164 152 184 68 192 73 93 103 159 247 253 244 153 54 106 88 137 325 295 270 248 250 224 150 303 338 338 338
340 338 337 319 176 176 167 180 173 147 185 239 144 166 174 143 128 131 139 169 132 6 120 169 184 252 206 240 203 170 141 137 204 229 271 283 257 276 193 48 279 329 326 318
330 337 330 313 186 179 177 186 190 165 155 281 230 123 127 114 151 150 171 99 246 76 151 173 203 182 231 252 207 181 175 159 204 151 233 287 192 330 64 225 295 286 318 348
331 329 327 331 209 189 185 161 159 143 127 236 250 294 308 273 173 132 174 184 156 170 108 185 125 183 141 208 267 169 230 194 183 185 219 250 276 241 300 189 252 321 315 350
330 332 333 335 343 191 181 140 145 119 118 315 82 232 233 311 40 168 124 268 155 157 143 151 142 196 135 202 244 245 240 156 214 355 261 244 269 265 252 243 244 351 18 82
329 332 339 334 333 199 132 148 154 151 108 210 230 70 165 350 289 81 56 131 81 98 86 116 138 175 160 225 263 221 221 148 187 261 287 291 285 258 279 221 154 101 69 40
326 328 332 334 324 168 126 103 153 149 143 164 149 93 24 4 169 123 106 114 114 121 103 117 208 168 130 171 347 249 192 195 176 222 244 200 264 314 298 206 202 174 143 109
320 325 331 333 324 149 134 127 219 161 108 89 140 14 65 41 85 102 101 106 92 103 143 192 198 264 128 146 244 261 221 229 211 259 337 228 267 275 224 243 226 162 158 151
319 323 324 323 315 310 170 187 160 156 115 170 112 139 289 132 99 45 71 38 97 111 141 185 156 210 153 170 227 265 280 312 277 274 310 295 207 279 160 232 139 112 97 106
317 317 315 306 299 297 227 2 145 139 110 101 131 116 138 180 156 115 327 100 56 32 145 111 170 133 124 250 239 277 294 316 203 10 297 259 304 319 97 92 138 127 136 137
316 311 296 292 208 192 141 121 129 80 122 169 129 159 190 151 135 115 68 85 119 53 193 221 139 180 221 231 186 315 310 290 288 313 298 285 256 272 215 175 177 175 171 162
317 298 286 273 244 126 97 42 53 66 46 90 145 99 154 160 137 108 108 62 142 167 226 118 191 253 267 104 317 291 294 281 293 298 304 269 260 242 218 209 197 203 190 163
339 317 262 314 268 59 67 136 154 130 157 164 142 158 137 205 122 139 179 152 142 162 226 170 224 261 196 355 328 305 297 279 265 245 260 267 278 279 235 214 202 181 175 182
290 267 291 275 349 114 116 132 132 183 174 126 140 174 142 156 136 103 178 118 115 224 151 134 251 258 15 349 320 313 311 299 295 268 251 251 245 247 235 206 185 178 164 142
124 243 238 152 194 201 164 177 170 155 160 158 159 126 126 134 134 87 116 117 188 136 170 232 238 299 335 328 310 312 324 353 350 344 355 348 303 43 196 177 160 155 152 149
261 284 278 205 248 301 235 200 154 160 145 137 122 110 123 129 102 135 152 106 145 170 213 235 269 328 320 326 330 351 342 352 7 353 2 17 12 19 31 145 150 146 154 155
276 290 290 341 311 278 279 273 103 50 137 135 114 89 106 92 105 104 101 89 203 204 220 195 306 340 338 349 352 353 347 359 7 342 20 14 22 56 66 62 123 131 131 143
272 21 340 348 322 324 18 73 70 360 127 130 62 102 84 138 130 116 197 148 211 209 173 164 34 12 3 356 359 3 3 14 12 4 9 34 32 38 54 62 67 121 152 160
15 4 16 319 335 341 329 59 67 306 31 78 108 100 165 104 86 141 187 177 144 125 121 138 140 42 26 353 17 18 19 30 15 17 33 34 16 34 49 65 48 75 107 140